Weather History for Lone Rock, WI

Change the Weather History Date:

Friday, February 15, 2013

  Actual Average Record
Temperature  
Mean Temperature 20 °F -  
Max Temperature 25 °F 32 °F 53 °F (1998)
Min Temperature 12 °F 17 °F -14 °F (2007)
Degree Days  
Heating Degree Days 46    
Moisture  
Dew Point 6 °F    
Average Humidity 56    
Maximum Humidity 65    
Minimum Humidity 45    
Precipitation  
Precipitation 0.00 in - - ()
Sea Level Pressure  
Sea Level Pressure 30.20 in    
Wind  
Wind Speed 10 mph (WNW)    
Max Wind Speed 16 mph    
Max Gust Speed 25 mph    
Visibility 10 miles    
Events      
Averages and records for this station are not official NWS values.
T = Trace of Precipitation, MM = Missing Value Source: NWS Daily Summary

Daily Weather History Graph

Daily Weather History Graph

Search for Another Location

Airport:

Trip Planner

Search our weather history database for the weather conditions in past years. The results will help you decide how hot, cold, wet, or windy it might be!

Date:

Astronomy

Feb. 15, 2013 Rise Set
Actual Time 6:58 AM CST 5:32 PM CST
Civil Twilight 6:28 AM CST 6:01 PM CST
Nautical Twilight 5:55 AM CST 6:34 PM CST
Astronomical Twilight 5:22 AM CST 7:07 PM CST
Moon 9:23 AM CST (2/15) 11:44 PM CST (2/15)
Length of Visible Light 11h 32m
Length of Day
10h 33m
Waxing Crescent, 30% of the Moon is Illuminated
Feb 15
Waxing Crescent
Feb 17
First Quarter
Feb 25
Full
Mar 4
Last Quarter
Mar 11
New

Hourly Weather History & Observations

Time (CST) Temp. Windchill Dew Point Humidity Pressure Visibility Wind Dir Wind Speed Gust Speed Precip Events Conditions
12:56 AM 23.0 °F 9.6 °F 9.0 °F 55% 30.09 in 10.0 mi NNW 16.1 mph 25.3 mph 0.00 in   Clear
1:56 AM 21.0 °F 9.9 °F 8.1 °F 57% 30.12 in 10.0 mi North 10.4 mph - N/A   Clear
2:56 AM 19.9 °F 12.1 °F 8.1 °F 60% 30.14 in 10.0 mi WNW 5.8 mph - N/A   Clear
3:56 AM 19.0 °F 8.2 °F 7.0 °F 59% 30.14 in 10.0 mi NW 9.2 mph - N/A   Clear
4:56 AM 18.0 °F 8.7 °F 6.1 °F 60% 30.18 in 10.0 mi West 6.9 mph - N/A   Clear
5:56 AM 16.0 °F - 6.1 °F 65% 30.19 in 10.0 mi Calm Calm - N/A   Clear
6:56 AM 15.1 °F 7.7 °F 5.0 °F 64% 30.20 in 10.0 mi West 4.6 mph - N/A   Clear
7:56 AM 17.1 °F 7.6 °F 5.0 °F 59% 30.22 in 10.0 mi WNW 6.9 mph - N/A   Clear
8:56 AM 19.0 °F 7.5 °F 5.0 °F 54% 30.23 in 10.0 mi WNW 10.4 mph - N/A   Overcast
9:56 AM 19.9 °F 12.1 °F 6.1 °F 55% 30.22 in 10.0 mi WNW 5.8 mph - N/A   Overcast
10:56 AM 21.0 °F 11.4 °F 7.0 °F 55% 30.22 in 10.0 mi West 8.1 mph - N/A   Mostly Cloudy
11:56 AM 23.0 °F 15.8 °F 8.1 °F 53% 30.21 in 10.0 mi West 5.8 mph - N/A   Overcast
12:56 PM 24.1 °F 15.2 °F 7.0 °F 48% 30.19 in 10.0 mi NW 8.1 mph - N/A   Mostly Cloudy
1:56 PM 25.0 °F 14.8 °F 6.1 °F 45% 30.18 in 10.0 mi NNW 10.4 mph - N/A   Clear
2:56 PM 24.1 °F 11.5 °F 7.0 °F 48% 30.19 in 10.0 mi West 15.0 mph - N/A   Clear
3:56 PM 23.0 °F 12.4 °F 7.0 °F 50% 30.20 in 10.0 mi NW 10.4 mph 20.7 mph N/A   Clear
4:56 PM 21.9 °F 9.2 °F 6.1 °F 51% 30.22 in 10.0 mi NW 13.8 mph - N/A   Clear
5:56 PM 19.9 °F 7.9 °F 7.0 °F 57% 30.23 in 10.0 mi WNW 11.5 mph - N/A   Partly Cloudy
6:56 PM 19.0 °F 7.5 °F 6.1 °F 57% 30.24 in 10.0 mi WNW 10.4 mph - N/A   Clear
7:56 PM 18.0 °F 6.1 °F 6.1 °F 60% 30.25 in 10.0 mi WNW 10.4 mph - N/A   Clear
8:56 PM 16.0 °F 4.4 °F 5.0 °F 62% 30.26 in 10.0 mi WNW 9.2 mph - N/A   Clear
9:56 PM 15.1 °F 4.2 °F 1.9 °F 56% 30.26 in 10.0 mi NW 8.1 mph - N/A   Clear
10:56 PM 14.0 °F 2.9 °F 1.9 °F 59% 30.26 in 10.0 mi WNW 8.1 mph - N/A   Clear
11:56 PM 12.9 °F 6.9 °F 1.0 °F 59% 30.25 in 10.0 mi West 3.5 mph - N/A   Clear